Location: Helion Bumpstead
(52.0500°N, 0.4000°E)
Time: 22:26:31
(UTC+00:00)

Cosmos 1725 Rocket - Pass Details

Date: 16 February 2026
Orbit: 962 x 989 km, 82.9° (Epoch: 11 March)

Event Time Altitude Azimuth Distance (km) Brightness Sun altitude
Rises 04:34:35 0° 131° (SE) 3,639 7.5 -24.7°
Reaches altitude 10° 04:38:06 10° 111° (ESE) 2,699 7.1 -24.1°
Maximum altitude 04:41:35 16° 76° (ENE) 2,309 6.9 -23.6°
Drops below altitude 10° 04:45:04 10° 41° (NE) 2,714 7.0 -23.1°
Sets 04:48:37 0° 21° (NNE) 3,670 7.4 -22.5°
